TimeEST,TemperatureF,Dew PointF,Humidity,Sea Level PressureIn,VisibilityMPH,Wind Direction,Wind SpeedMPH,Gust SpeedMPH,PrecipitationIn,Events,Conditions,WindDirDegrees,DateUTC
12:54 AM,39.9,36.0,86,29.75,10.0,WNW,5.8,-,N/A,,Overcast,300,2012-12-17 05:54:00
1:54 AM,39.0,35.1,86,29.75,10.0,NW,6.9,-,N/A,,Overcast,320,2012-12-17 06:54:00
3:54 AM,37.9,34.0,86,29.76,10.0,Calm,Calm,-,N/A,,Overcast,0,2012-12-17 08:54:00
4:54 AM,37.9,34.0,86,29.75,9.0,WNW,3.5,-,N/A,,Overcast,300,2012-12-17 09:54:00
5:54 AM,37.9,34.0,86,29.74,8.0,Calm,Calm,-,N/A,,Overcast,0,2012-12-17 10:54:00
6:54 AM,37.9,34.0,86,29.74,8.0,North,3.5,-,N/A,,Overcast,10,2012-12-17 11:54:00
7:54 AM,37.0,34.0,89,29.73,8.0,ENE,4.6,-,N/A,,Overcast,60,2012-12-17 12:54:00
8:54 AM,37.0,34.0,89,29.74,6.0,East,4.6,-,N/A,,Overcast,90,2012-12-17 13:54:00
9:54 AM,37.9,34.0,86,29.72,7.0,ENE,3.5,-,N/A,,Overcast,70,2012-12-17 14:54:00
10:54 AM,39.0,34.0,82,29.72,6.0,NNE,4.6,-,N/A,,Haze,30,2012-12-17 15:54:00
11:54 AM,39.0,34.0,82,29.71,7.0,Calm,Calm,-,N/A,,Overcast,0,2012-12-17 16:54:00
12:54 PM,39.0,34.0,82,29.68,6.0,NNE,4.6,-,N/A,,Haze,30,2012-12-17 17:54:00
1:54 PM,39.0,34.0,82,29.66,6.0,North,4.6,-,N/A,,Haze,10,2012-12-17 18:54:00
2:54 PM,39.0,35.1,86,29.63,5.0,NNE,4.6,-,0.01,Rain,Light Rain,30,2012-12-17 19:54:00
3:02 PM,39.2,35.6,87,29.62,2.0,North,5.8,-,0.00,Rain,Light Rain,10,2012-12-17 20:02:00
3:54 PM,39.0,36.0,89,29.63,3.0,North,4.6,-,0.00,,Overcast,360,2012-12-17 20:54:00
4:01 PM,39.2,35.6,87,29.63,3.0,North,5.8,-,N/A,,Overcast,360,2012-12-17 21:01:00
4:14 PM,37.4,35.6,93,29.63,3.0,North,6.9,-,N/A,,Overcast,350,2012-12-17 21:14:00
4:54 PM,37.9,36.0,93,29.64,4.0,North,5.8,-,N/A,,Overcast,360,2012-12-17 21:54:00
7:54 PM,37.0,35.1,93,29.68,6.0,North,3.5,-,N/A,,Overcast,350,2012-12-18 00:54:00
8:54 PM,37.0,34.0,89,29.69,6.0,NNW,4.6,-,N/A,,Overcast,330,2012-12-18 01:54:00
9:54 PM,37.0,34.0,89,29.70,5.0,NNW,8.1,-,0.00,Rain,Light Rain,330,2012-12-18 02:54:00
10:33 PM,35.6,33.8,93,29.69,5.0,NNW,9.2,-,0.01,Rain,Light Rain,340,2012-12-18 03:33:00
10:54 PM,36.0,34.0,93,29.71,5.0,NNW,8.1,-,0.01,,Overcast,340,2012-12-18 03:54:00
11:25 PM,35.6,33.8,93,29.71,5.0,NNW,10.4,-,0.01,Rain,Light Rain,340,2012-12-18 04:25:00
11:54 PM,35.1,33.1,92,29.73,5.0,NW,6.9,-,0.02,Rain,Light Rain,320,2012-12-18 04:54:00